Regional Weather Roundup
Issued by NWS

Home | Current Version | Previous Version | Text Only | Print | Product List | Glossary On
Versions: 1 2 3 4 5 6 7 8 9 10 11 12 13 14 15 16 17 18 19 20 21 22 23 24 25 26 27 28 29 30 31 32 33 34 35 36 37 38 39 40 41 42 43 44 45 46 47 48 49 50
000
ASUS43 KMKX 241821
RWRWI

WISCONSIN REGIONAL WEATHER ROUNDUP
NATIONAL WEATHER SERVICE MILWAUKEE/SULLIVAN WI
100 PM CDT MON JUL 24 2017

NOTE: "FAIR" INDICATES FEW OR NO CLOUDS BELOW 12,000 FEET WITH NO
SIGNIFICANT WEATHER AND/OR OBSTRUCTIONS TO VISIBILITY.

WIZ001-002-006>008-014>016-023>028-241900-
NORTHWEST WISCONSIN

CITY           SKY/WX    TMP DP  RH WIND       PRES   REMARKS
SUPERIOR ARPT  NOT AVBL
ASHLAND        SUNNY     74  56  53 SW7       30.08F
6HR MIN TEMP:  55; 6HR MAX TEMP:  74;

HAYWARD        SUNNY     72  52  49 SE7       30.09S
6HR MIN TEMP:  52; 6HR MAX TEMP:  72;

SIREN          SUNNY     73  57  56 SE6       30.07F
6HR MIN TEMP:  54; 6HR MAX TEMP:  73;

CUMBERLAND     SUNNY     68  54  60 S3        30.09F
RICE LAKE      SUNNY     68  55  64 SE3       30.10F
6HR MIN TEMP:  53; 6HR MAX TEMP:  67;

CHETEK         SUNNY     65  58  76 E5        30.10S
6HR MIN TEMP:  54; 6HR MAX TEMP:  65;

LADYSMITH      SUNNY     70  56  59 SE5       30.11F
6HR MIN TEMP:  55; 6HR MAX TEMP:  70;

EAU CLAIRE     MOSUNNY   69  57  65 CALM      30.07F
6HR MIN TEMP:  57; 6HR MAX TEMP:  70;

MENOMONIE      MOSUNNY   69  58  67 NE5       30.09S
6HR MIN TEMP:  56; 6HR MAX TEMP:  70;

NEW RICHMOND   PTSUNNY   73  57  57 SE5       30.07S
6HR MIN TEMP:  56; 6HR MAX TEMP:  73;

OSCEOLA        SUNNY     73  58  59 SE7       30.09F
6HR MIN TEMP:  54; 6HR MAX TEMP:  73;

$$

WIZ003>005-009-010-017-018-241900-
NORTH CENTRAL WISCONSIN

CITY           SKY/WX    TMP DP  RH WIND       PRES   REMARKS
MANITOWISH WTR SUNNY     71  51  49 E5        30.10F
6HR MIN TEMP:  52; 6HR MAX TEMP:  71;

ARBOR VITAE    SUNNY     72  51  48 SE7       30.10F
6HR MIN TEMP:  55; 6HR MAX TEMP:  72;

WOODRUFF       SUNNY     72  51  48 SE7       30.10F
6HR MIN TEMP:  55; 6HR MAX TEMP:  72;

RHINELANDER    SUNNY     72  51  47 CALM      30.11F
6HR MIN TEMP:  53; 6HR MAX TEMP:  73;

EAGLE RIVER    SUNNY     72  49  44 E7        30.10F
6HR MIN TEMP:  50; 6HR MAX TEMP:  72;

LAND O LAKES   SUNNY     73  47  38 E3        30.12F
6HR MIN TEMP:  50; 6HR MAX TEMP:  73;

PHILLIPS       SUNNY     70  53  53 E6        30.10S
6HR MIN TEMP:  53; 6HR MAX TEMP:  70;

TOMAHAWK         N/A     70  53  53 CALM      30.11F
6HR MIN TEMP:  52; 6HR MAX TEMP:  71;

MEDFORD        SUNNY     69  55  60 SE5       30.10S
6HR MIN TEMP:  54; 6HR MAX TEMP:  70;

MERRILL        SUNNY     72  55  53 SE6       30.10S
$$

WIZ029-030-035-036-043>047-241900-
CENTRAL WISCONSIN

CITY           SKY/WX    TMP DP  RH WIND       PRES   REMARKS
WAUSAU         SUNNY     72  53  51 MISG      30.08F
6HR MIN TEMP:  57; 6HR MAX TEMP:  73;

MOSINEE        MOSUNNY   72  54  53 SE5       30.11S
MARSHFIELD     MOSUNNY   70  55  59 E6        30.09S
6HR MIN TEMP:  57; 6HR MAX TEMP:  72;

STEVENS POINT  MOSUNNY   70  54  56 SE10G16   30.10S
6HR MIN TEMP:  57; 6HR MAX TEMP:  70;

WAUPACA        MOSUNNY   76  54  45 NE7       30.09F
6HR MIN TEMP:  62; 6HR MAX TEMP:  76;

WAUTOMA        MOSUNNY   72  58  61 NE10      30.09F
6HR MIN TEMP:  62; 6HR MAX TEMP:  72;

WISC RAPIDS    MOSUNNY   73  56  54 SE8       30.10F
6HR MIN TEMP:  61; 6HR MAX TEMP:  74;

CAMP DOUGLAS   MOSUNNY   70  59  68 SE6       30.08S
$$

WIZ011>013-019>022-031-037>040-048>050-241900-
NORTHEAST WISCONSIN

CITY           SKY/WX    TMP DP  RH WIND       PRES   REMARKS
ANTIGO         SUNNY     71  54  55 E7        30.10F
6HR MIN TEMP:  53; 6HR MAX TEMP:  71;

SHAWANO        SUNNY     74  53  48 E7        30.09F
6HR MIN TEMP:  61; 6HR MAX TEMP:  74;

OCONTO         SUNNY     71  54  55 E7        30.09S
STURGEON BAY     N/A     69  55  60 N10       30.10R
6HR MIN TEMP:  60; 6HR MAX TEMP:  70;

GREEN BAY      SUNNY     71  58  63 NE10      30.09F
6HR MIN TEMP:  60; 6HR MAX TEMP:  71;

MANITOWOC      SUNNY     69  54  58 NE12G17   30.10R
6HR MIN TEMP:  62; 6HR MAX TEMP:  70;

APPLETON       MOSUNNY   72  50  46 NE12      30.08F
CLINTONVILLE   SUNNY    N/A N/A N/A E7        30.09F
OSHKOSH        MOSUNNY   71  57  61 VRB6      30.08S
6HR MIN TEMP:  62; 6HR MAX TEMP:  71;

$$

WIZ032>034-041-042-053>061-241900-
SOUTHWEST WISCONSIN

CITY           SKY/WX    TMP DP  RH WIND       PRES   REMARKS
LA CROSSE      PTSUNNY   72  58  61 SE7       30.08S
6HR MIN TEMP:  63; 6HR MAX TEMP:  72;

SPARTA         PTSUNNY   69  57  64 CALM      30.09F
6HR MIN TEMP:  57; 6HR MAX TEMP:  70;

VIROQUA        CLOUDY    68  59  72 CALM      30.10S
6HR MIN TEMP:  57; 6HR MAX TEMP:  68;

BOSCOBEL       CLOUDY    73  58  59 VRB6      30.07F
6HR MIN TEMP:  60; 6HR MAX TEMP:  74;

PRAIRIE DU CHI CLOUDY    72  58  59 SE7       30.06S
6HR MIN TEMP:  61; 6HR MAX TEMP:  72;

PLATTEVILLE      N/A     72  61  69 E7        30.07S
$$

WIZ056-057-062-063-064-067-068-241900-
SOUTH CENTRAL WISCONSIN

CITY           SKY/WX    TMP DP  RH WIND       PRES   REMARKS
REEDSBURG      PTSUNNY   71  59  66 SE8       30.08F
6HR MIN TEMP:  61; 6HR MAX TEMP:  71;

BARABOO/DELLS  CLOUDY    73  55  54 E7        30.08F
6HR MIN TEMP:  60; 6HR MAX TEMP:  73;

LONE ROCK      CLOUDY    68  59  73 SE7       30.08F
6HR MIN TEMP:  63; 6HR MAX TEMP:  69;

MINERAL POINT  CLOUDY    70  61  73 NE7       30.09S
MADISON        PTSUNNY   71  57  61 E7        30.07F
6HR MIN TEMP:  61; 6HR MAX TEMP:  72;

MIDDLETON      MOSUNNY   71  57  61 NE3       30.09S
6HR MIN TEMP:  61; 6HR MAX TEMP:  72;

WATERTOWN      PTSUNNY   73  60  64 E8        30.07S
6HR MIN TEMP:  63; 6HR MAX TEMP:  73;

MONROE         CLOUDY    70  57  64 NE9       30.07F
JANESVILLE     NOT AVBL
$$

WIZ051-052-058>065-066-070>072-241900-
SOUTHEAST WISCONSIN

CITY           SKY/WX    TMP DP  RH WIND       PRES   REMARKS
MILWAUKEE      MOSUNNY   70  60  70 NE15      30.07S
6HR MIN TEMP:  65; 6HR MAX TEMP:  71;

WAUKESHA       MOSUNNY   70  55  60 NE10G16   30.09S
MILWAUKEE/TIMM PTSUNNY   70  55  60 NE12      30.09R
RACINE         PTSUNNY   70  62  76 N13G24    30.09R
6HR MIN TEMP:  65; 6HR MAX TEMP:  72;

KENOSHA        MOSUNNY   71  57  61 N12G22    30.07S
6HR MIN TEMP:  65; 6HR MAX TEMP:  72;

FOND DU LAC    MOSUNNY   73  55  53 E7        30.08S
6HR MIN TEMP:  64; 6HR MAX TEMP:  74;

SHEBOYGAN      SUNNY     69  60  73 NE16      30.09R
6HR MIN TEMP:  63; 6HR MAX TEMP:  69;

WEST BEND      MOSUNNY   70  55  60 NE12      30.08F
JUNEAU         PTSUNNY   71  57  60 NE8       30.09S
6HR MIN TEMP:  61; 6HR MAX TEMP:  72;

$$

LSZ147-162-241900-
LAKE SUPERIOR

STATION/POSITION TIME  TEMP    WIND        PRES    WAVE
                       AIR SEA DIR/SP/G            HT/PER
                 (UTC) (F)     (DEG/KT/KT) (MB)    (FT/S)
W MID LAKE BUOY  1750   51 50  220/  4/  4 1019.5F   0
DEVILS ISLAND    1800   58      40/  5/  6 1019.0F
PORT WING        1540   55     350/  4/  6   N/A
SAXON HARBOR     1740   62      40/  6/  7 1018.6F
$$

LMZ867-665-643>646-241900-
LAKE MICHIGAN

STATION/POSITION TIME  TEMP    WIND        PRES    WAVE
                       AIR SEA DIR/SP/G            HT/PER
                 (UTC) (F)     (DEG/KT/KT) (MB)    (FT/S)
CHAMBERS ISLAND  1740   67      20/  6/  8 1018.3S
S GREEN BAY BUOY 1800   67 72   60/  8/ 12 1018.7
N MID LAKE BUOY  1750   65 66   10/  8/ 10 1019.1R   2/ 4
NORTHPORT PIER   1740   67     320/  8/ 11 1018.6S
KEWAUNEE LAKESHO 1754   68      40/  7/ 11 1018.2S
SHEBOYGAN LAKESH 1800   64      20/ 15/ 17 1018.7R
PORT WASHINGTON  1730   68


USA.gov is the U.S. government's official web portal to all federal, state and local government web resources and services.